User: anonymous   Login
Location: Campo Alegre
(10.1673°N, 67.4431°W)
Time: 16:57:32
(UTC+00:00)
Language:

SL-24 R/B - RUBIN 2 - Orbit

View from above orbital plane
View from above orbital plane
View from above satellite
View from above satellite

Ground track
Ground track

The orbit data is extracted from the following two-line orbital elements,

1 27610U 02058F   24172.99738027  .00000045  00000-0  41583-4 0  9996
2 27610  64.5574  74.2446 0317221 264.2283 180.5490 14.28842514121133
Epoch (UTC): 20 June 2024 23:56:13
Eccentricity: 0.0317221
inclination: 64.5574°
perigee height: 568 km
apogee height: 1023 km
right ascension of ascending node: 74.2446°
argument of perigee: 264.2283°
revolutions per day: 14.28842514
mean anomaly at epoch: 180.5490°
orbit number at epoch: 12113

The dashed part of the orbit path shows where the satellite is in the earth's shadow,  

DLR